Location: Bailey Volunteer Fire Department
(33.4359°N, 96.1680°W)
Time: 17:12:09
(UTC+00:00)

Cosmos 2322 Rocket - Pass Details

Date: 13 December 2025
Orbit: 831 x 851 km, 71.0° (Epoch: 14 January)

Event Time Altitude Azimuth Distance (km) Brightness Sun altitude
Exits shadow 12:18:18 - 333° (NNW) 2,751 4.4 -12.7°
Reaches altitude 10° 12:19:02 10° 332° (NNW) 2,474 4.2 -12.5°
Maximum altitude 12:24:37 63° 253° (WSW) 938 2.2 -11.4°
Drops below altitude 10° 12:30:10 10° 173° (S) 2,448 5.0 -10.3°
Sets 12:32:37 0° 170° (S) 3,376 5.8 -9.9°
